Погода в Березове

Россия / Курганская область     54°39′57″N   64°27′57″E
темп.,
°C
ветер,
м/с
пор.,
м/с
влажн.,
%
обл.,
%
осадки,
мм/ч
давл.,
гПа
погр.,
м
15 мая, сб
сб1523:00+21ююз46410 0.0 102390
02:00+19ююз48464 0.0 1023115
05:00+17зсз22565 0.1 102322
08:00+22св01425 0.2 1023211
11:00+28зсз343131 0.2 10221192
14:00+30зсз562544 0.0 10213191
17:00+30зсз56225 0.0 10202978
20:00+25зсз22375 0.0 101911
16 мая, вс
вс1623:00+21зсз354260 0.0 101951
02:00+20зсз4949100 0.0 1020135
05:00+18зсз355883 0.0 102181
08:00+23зсз4748100 0.0 1021273
11:00+29зсз563063 0.0 10201101
14:00+31сз5723100 0.0 10202267
17:00+31сз57225 0.0 10192864
20:00+26сз12365 0.0 101911
17 мая, пн
пн1723:00+22з23385 0.0 101914
02:00+21зсз22415 0.0 101912
05:00+19сз334914 0.3 102020
08:00+25сз344028 0.1 1020223
11:00+30зсз34285 0.1 10191341
14:00+32з482320 0.0 10183716
17:00+31зсз462498 0.0 10172339
20:00+25ссз7133711 0.0 1017338
18 мая, вт
вт1823:00+21зсз494110 0.0 1016121
02:00+19з3553100 0.1 101779
05:00+18сз465711 0.2 101783
08:00+24сз454699 0.0 1017299
11:00+28сз573444 0.0 10162197
14:00+28сз6730100 0.0 10152854
17:00+28сз68330 0.0 10152625
20:00+23зсз46430 0.0 101471
19 мая, ср
ср1923:00+18в815605 0.0 1016427
02:00+15ссз118062 0.1 101711
05:00+14с511778 0.1 1019278
08:00+17ссв68728 0.0 1021678
11:00+20св56533 0.0 10221348
14:00+23ссв564154 0.0 10221665
17:00+23св55375 0.0 10221682
20:00+19всв33505 0.0 102347